#timestamp,LO_Frequency,Hit,StdDev 
1591171215.4,286047000.9,N
1591171235.3,286047000.1,N
1591171255.1,286046999.8,N
1591171275.9,286047000.0,N
1591171295.7,286047001.0,N
1591171315.5,286047000.7,N
1591171335.4,286046998.6,N
1591171355.2,286046996.9,N
1591171375.1,286046995.2,Y
1591171376.0,286046995.2,P
1591171395.8,286046997.7,N
1591171415.6,286046995.3,N
1591171435.5,286046994.9,N
1591171455.3,286046995.4,N
1591171475.2,286046995.5,N
1591171495.0,286046993.7,Y
1591171495.9,286046993.7,P
1591171515.7,286046999.3,N
1591171535.6,286047000.5,N
1591171555.4,286047000.7,N
1591171575.3,286046998.9,N
1591171595.1,286047002.8,N
1591171615.8,286047000.1,N
1591171635.7,286047001.5,N
1591171655.5,286047002.7,N
1591171675.4,286047000.1,N
1591171695.2,286047002.4,N
1591171715.0,286047000.6,N
1591171716.0,286047000.6,N
1591171735.8,286047000.1,N
1591171755.6,286047002.6,N
1591171775.5,286047001.9,N
1591171795.3,286047002.6,N
1591171815.1,286047002.4,N
1591171835.9,286047002.1,N
1591171855.7,286047001.7,N
1591171875.6,286047003.2,N
1591171895.4,286047003.6,N
1591171915.2,286047003.8,N
1591171935.1,286047003.9,N
1591171936.0,286047003.9,N
1591171955.8,286047003.9,N
1591171975.7,286047003.1,N
1591171995.5,286047003.7,N
1591172015.3,286047004.1,N
1591172035.2,286047003.6,N
1591172055.0,286047003.3,N
1591172055.9,286047003.3,N
1591172075.8,286047005.1,Y
1591172095.6,286046999.8,P
1591172115.4,286047002.1,N
1591172135.3,286047001.9,N
1591172155.1,286047002.6,N
1591172175.8,286047002.5,N
1591172195.7,286047002.9,Y
1591172215.5,286047004.0,P
1591172235.4,286047002.2,N
1591172255.2,286046999.9,N
1591172275.0,286047002.3,N
1591172275.9,286047002.3,N
1591172295.8,286047001.2,N
1591172315.6,286047000.3,N
1591172335.5,286047000.7,N
1591172355.3,286047000.8,N
1591172375.1,286047000.9,N
1591172395.9,286047000.4,N
1591172415.7,286046998.1,N
1591172435.6,286046998.1,N
1591172455.4,286047001.7,N
1591172475.2,286047003.5,N
1591172495.1,286047003.8,N
1591172496.0,286047003.8,N
1591172515.8,286047001.3,N
1591172535.6,286046999.9,N
1591172555.5,286047001.5,N
1591172575.3,286047001.7,N
1591172595.2,286047001.8,N
1591172615.9,286047001.0,N
1591172635.7,286047002.3,N
1591172655.6,286047004.3,N
1591172675.4,286047002.3,N
1591172695.3,286047001.5,N
1591172715.1,286047001.6,N
1591172716.0,286047001.6,N
1591172735.8,286047003.0,N
1591172755.7,286047004.1,N
1591172775.5,286047001.6,N
1591172795.4,286047001.8,N
1591172815.2,286047000.0,N
1591172835.0,286047000.0,N
1591172835.9,286047000.0,N
1591172855.8,286047000.6,N
1591172875.6,286047001.4,N
1591172895.5,286047000.2,N
1591172915.3,286047002.0,N
1591172935.1,286047001.6,N
1591172955.9,286047002.3,N
1591172975.7,286047001.5,N
1591172995.5,286047002.4,N
1591173015.4,286047002.6,N
1591173035.2,286047004.3,Y
1591173055.1,286047002.1,P
1591173056.0,286047002.1,P
1591173075.8,286047002.4,P
1591173095.6,286047003.8,Y
1591173115.5,286047002.4,P
1591173135.3,286047000.6,P
1591173155.2,286047000.0,N
1591173175.9,286047000.4,N
1591173195.7,286047001.6,N
1591173215.6,286046999.7,N
1591173235.4,286047000.9,N
1591173255.2,286047001.2,N
1591173275.1,286046998.1,N
1591173276.0,286046998.1,N
1591173295.8,286046999.0,N
1591173315.7,286046998.2,N
1591173335.5,286047000.9,N
1591173355.3,286047001.0,N
1591173375.2,286047000.7,N
1591173395.0,286047000.9,N
1591173395.9,286047000.9,N
1591173415.8,286046998.3,N
1591173435.6,286046999.0,N
1591173455.4,286046997.4,N
1591173475.3,286046999.0,N
1591173495.1,286047001.0,N
1591173515.8,286047000.2,N
1591173535.7,286046999.9,N
1591173555.5,286047000.1,N
1591173575.4,286047000.7,N
1591173595.2,286047001.0,N
1591173615.0,286047000.8,N
1591173615.9,286047000.8,N
1591173635.8,286047002.0,N
1591173655.6,286047000.2,N
1591173675.5,286047000.4,N
1591173695.3,286047001.2,N
1591173715.1,286047000.3,N
1591173735.9,286046998.2,N
1591173755.7,286047001.2,N
1591173775.6,286047000.1,N
1591173795.4,286046998.6,N
1591173815.2,286046998.0,N
1591173835.1,286046999.5,N
1591173836.0,286046999.5,N
1591173855.8,286046998.7,N
1591173875.7,286046999.2,N
1591173895.5,286046998.8,N
1591173915.3,286046999.6,N
1591173935.2,286046999.2,N
1591173955.0,286046996.6,Y
1591173955.9,286046996.6,P
1591173975.8,286046998.8,N
1591173995.6,286046998.0,N
1591174015.4,286046997.7,N
1591174035.3,286047000.5,N
1591174055.1,286046997.3,N
1591174075.9,286046993.6,Y
1591174095.7,286046997.9,P
1591174115.5,286046997.5,P
1591174135.4,286046999.2,N
1591174155.2,286046999.5,N
1591174175.0,286046996.7,Y
1591174176.0,286046996.7,P
1591174195.8,286047001.2,N
1591174215.6,286046998.5,N
1591174235.5,286047000.2,N
1591174255.3,286047000.3,N
1591174275.1,286047000.4,N
1591174295.9,286047000.7,N
1591174315.7,286046999.9,N
1591174335.6,286046998.6,N
1591174355.4,286046999.4,N
1591174375.2,286047001.2,N
1591174395.1,286046998.2,N
1591174396.0,286046998.2,N
1591174415.8,286046998.9,N
1591174435.7,286046998.4,N
1591174455.5,286046998.9,N
1591174475.3,286046997.0,N
1591174495.2,286046998.0,N
1591174515.0,286046995.1,Y
1591174515.9,286046995.1,P
1591174535.8,286046996.7,N
1591174555.6,286047000.8,N
1591174575.4,286047000.5,N
1591174595.3,286046998.1,N
1591174615.1,286046999.7,N
1591174635.8,286047002.8,N
1591174655.7,286047000.9,N
1591174675.5,286046998.5,N
1591174695.4,286046996.9,N
1591174715.2,286047001.6,N
1591174735.0,286047005.8,N
1591174735.9,286047005.8,N
1591174755.8,286047004.6,N
1591174775.6,286047006.6,N
1591174795.4,286047022.8,Y
